Regional Weather Roundup
Issued by NWS Upton, NY

Current Version | Previous Version | Graphics & Text | Print | Product List | Glossary Off
Versions: 1 2 3 4 5 6 7 8 9 10 11 12 13 14 15 16 17 18 19 20 21 22 23 24 25 26 27 28

000
ASUS41 KOKX 040404
RWROKX

REGIONAL WEATHER ROUNDUP
NATIONAL WEATHER SERVICE NEW YORK NY
1200 AM EDT WED MAY 04 2016

NOTE: "FAIR" INDICATES FEW OR NO CLOUDS BELOW 12,000 FEET WITH NO
SIGNIFICANT WEATHER AND/OR OBSTRUCTIONS TO VISIBILITY.

NYZ071-072-176-178-NJZ106-104-040500-
NEW YORK CITY METRO AREA


CITY           SKY/WX    TMP DP  RH WIND       PRES   REMARKS
CENTRAL PARK   CLOUDY    52  49  89 E5        29.85F FOG
LAGUARDIA APRT CLOUDY    52  51  97 SE7       29.82F
KENNEDY INTL   DRIZZLE   50  48  93 E7        29.84F FOG
NEWARK/LIBERTY CLOUDY    51  50  97 SE6       29.83F
BRNX BOT. GARD   N/A     50  48  93 NE1       29.84S
TETERBORO      CLOUDY    53  48  83 CALM      29.82F FOG
$$

NYZ177-179-078>081-040500-
LONG ISLAND NEW YORK

CITY           SKY/WX    TMP DP  RH WIND       PRES   REMARKS
FARMINGDALE    CLOUDY    49  48  97 E6        29.84S
ISLIP          CLOUDY    49  47  93 E5        29.83F
SHIRLEY        CLOUDY    48  46  93 VRB3      29.84F
RIVERHEAD        N/A     48  48 100 CALM      29.84S
WESTHAMPTON    CLOUDY    44  44 100 NE5       29.85F
EAST HAMPTON   CLOUDY    47  45  93 E5        29.84F
MONTAUK POINT    N/A     48  45  89 E3        29.86F
$$

NYZ052-065-067-040500-
HUDSON VALLEY

CITY           SKY/WX    TMP DP  RH WIND       PRES   REMARKS
WHITE PLAINS   FOG       49  48  97 E3        29.82F VSB 1/2
NEWBURGH       FOG       50  50 100 E7        29.82F VSB 1/2
MONTGOMERY     CLOUDY    51  49  92 N3        29.81F
POUGHKEEPSIE   CLOUDY    53  50  89 CALM      29.81F FOG
ALBANY         DRIZZLE   49  47  93 CALM      29.84F FOG
$$

NJZ001-105-106-008-010-013-015-019>022-104-040500-
NEW JERSEY

CITY           SKY/WX    TMP DP  RH WIND       PRES   REMARKS
NEWARK/LIBERTY CLOUDY    51  50  97 SE6       29.83F
TETERBORO      CLOUDY    53  48  83 CALM      29.82F FOG
CALDWELL       CLOUDY    52  49  89 E3        29.83S FOG
MORRISTOWN     CLOUDY    50  50 100 CALM      29.83R FOG
SOMERVILLE     CLOUDY    52  50  93 CALM      29.81S FOG
SUSSEX         CLOUDY    51  49  92 CALM      29.82S
ANDOVER          N/A     51  50  96 CALM      29.81F
TRENTON        CLOUDY    50  48  93 SE6       29.82S
MILLVILLE      CLOUDY    50  48  93 NE12      29.80F
ATLANTIC CITY  CLOUDY    49  48  97 E12       29.81F FOG
WRIGHTSTOWN    CLOUDY    49  49  97 E8        29.80S
TOMS RIVER     CLOUDY    48  46  93 CALM      29.84S
BELMAR         CLOUDY    48  47  96 E8        29.84F
$$

PAZ047>061-062-071-040500-
EASTERN PENNSYLVANIA

CITY           SKY/WX    TMP DP  RH WIND       PRES   REMARKS
PHILADELPHIA   CLOUDY    53  48  83 E12       29.82F
ALLENTOWN      CLOUDY    54  50  86 E6        29.80S
SCRANTON       CLOUDY    51  49  92 N3        29.78F FOG
$$

CTZ002-004>006-009-010-012-RIZ004-006-007-MAZ004-011-015-040500-
SOUTHERN NEW ENGLAND
 IN CT

CITY           SKY/WX    TMP DP  RH WIND       PRES   REMARKS
BRADLEY INTL   CLOUDY    50  47  89 NE3       29.84F
HARTFORD       CLOUDY    53  47  79 SE5       29.85F
DANBURY        CLOUDY    49  47  93 SE5       29.84F FOG
WTRBRY/OXFORD    N/A     48  45  87 SE3       29.84F
BRIDGEPORT     CLOUDY    50  48  93 E7        29.84F
MERIDEN        CLOUDY    50  47  89 S3        29.84F
NEW HAVEN      CLOUDY    49  47  93 VRB6      29.83F
CHESTER        CLOUDY    48  48 100 CALM      29.84F FOG
GROTON         CLOUDY    49  49 100 E6        29.84F
WILLIMANTIC    CLOUDY    50  45  83 E5        29.86F

 IN RI

CITY           SKY/WX    TMP DP  RH WIND       PRES   REMARKS
PROVIDENCE     CLOUDY    48  41  76 NE6       29.87S
BLOCK ISLAND   CLOUDY    47  44  90 NE6       29.86F
WESTERLY       CLOUDY    48  43  82 NE5       29.85F

 IN MA

CITY           SKY/WX    TMP DP  RH WIND       PRES   REMARKS
BOSTON         CLOUDY    46  42  86 CALM      29.89S
WORCESTER      CLOUDY    43  40  89 CALM      29.86S
WESTFIELD      CLOUDY    49  48  97 CALM      29.84F
PROVINCETOWN   CLOUDY    45  43  93 NE6       29.87F
NANTUCKET      CLOUDY    47  44  90 NE8       29.84F
$$

ANZ330-335-338-340-345-350-353-355-040500-
COASTAL MARINE OBSERVATIONS


STATION/POSITION TIME  SKY/WX   TEMP    WIND        PRES    VSBY  WAVE
                                AIR SEA DIR/SP/G                  HT/PER
                 (UTC)          (F)     (DEG/KT/KT) (MB)    (MI)  (FT/S)
NY HARB ENTRANCE 0250            49 51   70/ 12/ 14 1010.1          4/ 6
20S FIRE ISLAND  0250            48 48   70/ 14/ 16 1009.8          4/ 6
GREAT SOUTH BAY  0300            49 55   90/ 14/ 16   N/A
23 SSW MONTAUK P 0350            47 47   60/ 12/ 14 1009.8          4/ 5
15 E BARNEGAT LI 0322               50                N/A           5/ 6
HUDSON CANYON    0250            49 48              1009.2          6/ 6
KINGS POINT      0300            51 53              1010.1
EXECUTION ROCKS  NOT AVBL
CENTRAL LI SOUND 0300            49     110/  4/  6   N/A           0
EASTERN LI SOUND 0300            48 47  110/  6/  8   N/A
ROBBINS REEF     0300            50     140/  8/  9 1009.6
$$


>>>>>>>>>>>>>>>>>>>>>>>>>>>> KEY <<<<<<<<<<<<<<<<<<<<<<<<<<<
>                                                          <
>     SKY/WX - SKY CONDITION/PRESENT WEATHER               <
>     TMP    - TEMPERATURE IN FAHRENHEIT                   <
>     DP     - DEWPOINT IN FAHRENHEIT                      <
>     RH     - RELATIVE HUMIDITY IN PERCENT                <
>     WIND   - DIRECTION AND SPEED IN MPH                  <
>     PRES   - MEAN SEA LEVEL PRESSURE IN INCHES OF HG     <
>     WCI    - WIND CHILL INDEX                            <
>     VSB    - VISIBILITY IN MILES                         <
>     HX     - HEAT INDEX                                  <
>     TC     - TEMPERATURE IN CELSIUS                      <
>     VRB    - VARIABLE WIND DIRECTION                     <
>                                                          <
>>>>>>>>>>>>>>>>>>>>>>>>>>>> KEY <<<<<<<<<<<<<<<<<<<<<<<<<<<






USA.gov is the U.S. government's official web portal to all federal, state and local government web resources and services.